When you browse on this site, cookies collect data to enhance your experience and personalize the content and advertising you see.
Visit our Privacy Policy to learn more. By continuing to use the site, you agree to this use of cookies and data.
  • In Österreich
  • Länderverzeichnis
  • Für 7 Tage
  • Wassertemperatur
  • Satellitenkarten
  • Wetterkarte
  • News
  • Widgets
  • user-avatar
    Anmelden

    Stündliche Wetter Punta Gorda

    Heute, 21 April, Sonntag

    Zeit Temperatur Niederschläge Wind Luftdruck Luftfeuchtigkeit
    00:00 +22°C° 0 mm 1 m/S 763 mmHg 77%
    01:00 +22°C° 0 mm 1 m/S 763 mmHg 78%
    02:00 +22°C° 0 mm 1 m/S 763 mmHg 79%
    03:00 +21°C° 0 mm 1 m/S 763 mmHg 80%
    04:00 +21°C° 0 mm 1 m/S 763 mmHg 80%
    05:00 +21°C° 0 mm 1 m/S 763 mmHg 79%
    06:00 +21°C° 0 mm 1 m/S 763 mmHg 79%
    07:00 +24°C° 0 mm 1 m/S 763 mmHg 68%
    08:00 +27°C° 0 mm 1 m/S 763 mmHg 57%
    09:00 +30°C° 0 mm 1 m/S 764 mmHg 47%
    10:00 +31°C° 0 mm 1 m/S 763 mmHg 46%
    11:00 +32°C° 0 mm 2 m/S 763 mmHg 44%
    12:00 +34°C° 0 mm 3 m/S 762 mmHg 43%
    13:00 +33°C° 0 mm 4 m/S 762 mmHg 45%
    14:00 +33°C° 0 mm 4 m/S 761 mmHg 47%
    15:00 +33°C° 0 mm 5 m/S 760 mmHg 49%
    16:00 +32°C° 0 mm 5 m/S 761 mmHg 55%
    17:00 +29°C° 0 mm 4 m/S 761 mmHg 60%
    18:00 +28°C° 0 mm 4 m/S 761 mmHg 66%
    19:00 +27°C° 0 mm 4 m/S 761 mmHg 70%
    20:00 +26°C° 0 mm 4 m/S 762 mmHg 74%
    21:00 +25°C° 0 mm 3 m/S 763 mmHg 79%
    22:00 +25°C° 0 mm 3 m/S 763 mmHg 80%
    23:00 +24°C° 0 mm 2 m/S 763 mmHg 81%

    Morgen, 22 April, Montag

    Zeit Temperatur Niederschläge Wind Luftdruck Luftfeuchtigkeit
    00:00 +24°C° 0 mm 2 m/S 763 mmHg 82%
    01:00 +24°C° 0 mm 1 m/S 762 mmHg 83%
    02:00 +23°C° 0 mm 1 m/S 761 mmHg 83%
    03:00 +23°C° 0 mm 1 m/S 761 mmHg 83%
    04:00 +23°C° 0 mm 1 m/S 761 mmHg 84%
    05:00 +23°C° 0 mm 1 m/S 761 mmHg 84%
    06:00 +23°C° 0 mm 1 m/S 761 mmHg 85%
    07:00 +26°C° 0 mm 1 m/S 761 mmHg 75%
    08:00 +28°C° 0 mm 1 m/S 761 mmHg 66%
    09:00 +31°C° 0 mm 1 m/S 762 mmHg 57%
    10:00 +32°C° 0 mm 2 m/S 761 mmHg 54%
    11:00 +34°C° 0 mm 2 m/S 761 mmHg 50%
    12:00 +35°C° 0 mm 3 m/S 760 mmHg 47%
    13:00 +35°C° 0 mm 4 m/S 760 mmHg 48%
    14:00 +35°C° 0 mm 4 m/S 759 mmHg 48%
    15:00 +35°C° 0 mm 5 m/S 758 mmHg 48%
    16:00 +33°C° 0 mm 5 m/S 758 mmHg 55%
    17:00 +32°C° 0 mm 5 m/S 759 mmHg 62%
    18:00 +29°C° 0 mm 4 m/S 759 mmHg 68%
    19:00 +28°C° 0 mm 4 m/S 760 mmHg 74%
    20:00 +27°C° 0 mm 4 m/S 760 mmHg 80%
    21:00 +26°C° 0 mm 3 m/S 761 mmHg 85%
    22:00 +26°C° 0.2 mm 3 m/S 761 mmHg 88%
    23:00 +26°C° 0.2 mm 3 m/S 761 mmHg 91%

    übermorgen, 23 April, Dienstag

    Zeit Temperatur Niederschläge Wind Luftdruck Luftfeuchtigkeit
    00:00 +26°C° 0.2 mm 2 m/S 761 mmHg 94%
    01:00 +25°C° 0.3 mm 2 m/S 760 mmHg 95%
    02:00 +25°C° 0.3 mm 2 m/S 760 mmHg 96%
    03:00 +25°C° 0.3 mm 1 m/S 759 mmHg 96%
    04:00 +25°C° 0.1 mm 1 m/S 759 mmHg 97%
    05:00 +25°C° 0.1 mm 1 m/S 759 mmHg 97%
    06:00 +25°C° 0.1 mm 1 m/S 759 mmHg 97%
    07:00 +27°C° 0.1 mm 1 m/S 760 mmHg 87%
    08:00 +29°C° 0.1 mm 2 m/S 760 mmHg 76%
    09:00 +31°C° 0.1 mm 2 m/S 760 mmHg 66%
    10:00 +32°C° 0 mm 2 m/S 760 mmHg 60%
    11:00 +34°C° 0 mm 3 m/S 759 mmHg 55%
    12:00 +36°C° 0 mm 4 m/S 759 mmHg 49%
    13:00 +35°C° 0 mm 4 m/S 758 mmHg 49%
    14:00 +35°C° 0 mm 4 m/S 757 mmHg 48%
    15:00 +35°C° 0 mm 5 m/S 757 mmHg 48%
    16:00 +33°C° 0 mm 5 m/S 757 mmHg 55%
    17:00 +32°C° 0 mm 5 m/S 757 mmHg 62%
    18:00 +29°C° 0 mm 5 m/S 757 mmHg 69%
    19:00 +28°C° 0 mm 5 m/S 758 mmHg 75%
    20:00 +28°C° 0 mm 4 m/S 759 mmHg 80%
    21:00 +27°C° 0 mm 4 m/S 759 mmHg 86%
    22:00 +27°C° 0.1 mm 4 m/S 759 mmHg 88%
    23:00 +26°C° 0.1 mm 3 m/S 759 mmHg 90%

    24 April, Mittwoch

    Zeit Temperatur Niederschläge Wind Luftdruck Luftfeuchtigkeit
    00:00 +26°C° 0.1 mm 3 m/S 759 mmHg 92%
    01:00 +26°C° 0.2 mm 2 m/S 759 mmHg 93%
    02:00 +26°C° 0.2 mm 2 m/S 758 mmHg 95%
    03:00 +25°C° 0.2 mm 2 m/S 758 mmHg 96%
    04:00 +25°C° 0.2 mm 2 m/S 758 mmHg 96%
    05:00 +25°C° 0.2 mm 1 m/S 758 mmHg 96%
    06:00 +25°C° 0.2 mm 1 m/S 759 mmHg 96%
    07:00 +27°C° 0.1 mm 1 m/S 759 mmHg 87%
    08:00 +29°C° 0.1 mm 1 m/S 759 mmHg 77%
    09:00 +31°C° 0.1 mm 1 m/S 760 mmHg 68%
    10:00 +32°C° 0 mm 2 m/S 759 mmHg 61%
    11:00 +35°C° 0 mm 2 m/S 758 mmHg 55%
    12:00 +36°C° 0 mm 3 m/S 758 mmHg 48%
    13:00 +36°C° 0 mm 4 m/S 757 mmHg 49%
    14:00 +36°C° 0 mm 4 m/S 756 mmHg 49%
    15:00 +36°C° 0 mm 5 m/S 756 mmHg 49%
    16:00 +34°C° 0 mm 5 m/S 756 mmHg 56%
    17:00 +32°C° 0 mm 5 m/S 756 mmHg 63%
    18:00 +30°C° 0 mm 5 m/S 757 mmHg 71%
    19:00 +29°C° 0 mm 5 m/S 757 mmHg 76%
    20:00 +28°C° 0 mm 4 m/S 758 mmHg 81%
    21:00 +27°C° 0 mm 3 m/S 758 mmHg 87%
    22:00 +27°C° 0.1 mm 3 m/S 758 mmHg 87%
    23:00 +27°C° 0.1 mm 3 m/S 758 mmHg 88%

    25 April, Donnerstag

    Zeit Temperatur Niederschläge Wind Luftdruck Luftfeuchtigkeit
    00:00 +27°C° 0.1 mm 3 m/S 758 mmHg 89%
    01:00 +27°C° 0.1 mm 2 m/S 757 mmHg 90%
    02:00 +27°C° 0.1 mm 2 m/S 757 mmHg 91%
    03:00 +27°C° 0.1 mm 2 m/S 757 mmHg 93%
    04:00 +26°C° 0.1 mm 1 m/S 757 mmHg 94%
    05:00 +26°C° 0.1 mm 1 m/S 757 mmHg 95%
    06:00 +26°C° 0.1 mm 1 m/S 758 mmHg 96%
    07:00 +28°C° 0 mm 1 m/S 758 mmHg 84%
    08:00 +31°C° 0 mm 1 m/S 758 mmHg 73%
    09:00 +33°C° 0 mm 1 m/S 758 mmHg 62%
    10:00 +34°C° 0 mm 1 m/S 758 mmHg 56%
    11:00 +37°C° 0 mm 2 m/S 757 mmHg 49%
    12:00 +39°C° 0 mm 2 m/S 756 mmHg 43%
    13:00 +39°C° 0 mm 3 m/S 756 mmHg 42%
    14:00 +39°C° 0 mm 3 m/S 755 mmHg 42%
    15:00 +40°C° 0 mm 4 m/S 755 mmHg 41%
    16:00 +37°C° 0 mm 4 m/S 755 mmHg 49%
    17:00 +35°C° 0 mm 4 m/S 756 mmHg 56%
    18:00 +33°C° 0 mm 5 m/S 756 mmHg 64%
    19:00 +32°C° 0 mm 4 m/S 757 mmHg 69%
    20:00 +30°C° 0 mm 4 m/S 758 mmHg 74%
    21:00 +29°C° 0 mm 4 m/S 758 mmHg 80%
    22:00 +28°C° 0 mm 3 m/S 758 mmHg 82%
    23:00 +28°C° 0 mm 3 m/S 758 mmHg 85%

    26 April, Freitag

    Zeit Temperatur Niederschläge Wind Luftdruck Luftfeuchtigkeit
    00:00 +27°C° 0 mm 3 m/S 758 mmHg 87%
    01:00 +27°C° 0 mm 2 m/S 758 mmHg 88%
    02:00 +27°C° 0 mm 2 m/S 758 mmHg 89%
    03:00 +27°C° 0 mm 1 m/S 757 mmHg 89%
    04:00 +27°C° 0 mm 2 m/S 758 mmHg 88%
    05:00 +27°C° 0 mm 2 m/S 758 mmHg 87%
    06:00 +27°C° 0 mm 2 m/S 759 mmHg 86%
    07:00 +30°C° 0 mm 1 m/S 759 mmHg 73%
    08:00 +33°C° 0 mm 1 m/S 759 mmHg 61%
    09:00 +34°C° 0 mm 0 m/S 759 mmHg 49%
    10:00 +37°C° 0 mm 1 m/S 759 mmHg 44%
    11:00 +40°C° 0 mm 1 m/S 758 mmHg 40%
    12:00 +41°C° 0 mm 2 m/S 758 mmHg 35%
    13:00 +40°C° 0 mm 2 m/S 757 mmHg 40%
    14:00 +38°C° 0 mm 3 m/S 757 mmHg 44%
    15:00 +37°C° 0 mm 3 m/S 756 mmHg 49%
    16:00 +36°C° 0.1 mm 3 m/S 756 mmHg 55%
    17:00 +34°C° 0.1 mm 3 m/S 757 mmHg 62%
    18:00 +33°C° 0.1 mm 3 m/S 757 mmHg 69%
    19:00 +31°C° 0.1 mm 3 m/S 758 mmHg 73%
    20:00 +30°C° 0.1 mm 3 m/S 759 mmHg 78%
    21:00 +28°C° 0.1 mm 2 m/S 759 mmHg 82%
    22:00 +28°C° 0.4 mm 2 m/S 759 mmHg 84%
    23:00 +28°C° 0.4 mm 2 m/S 759 mmHg 86%
    Mehr zeigen